{"data":{"norad_id":45668,"epoch":"2026-09-20T00:36:54.101088Z","epoch_age_seconds":59147,"freshness":"FRESH","line1":"1 45668U 20035M   26263.02562617  .00024691  00000+0  11903-2 0  9994","line2":"2 45668  53.0517 262.6126 0002405  63.3204 296.8036 15.18594286348194","mean_motion":15.18594286,"eccentricity":0.0002405,"inclination_deg":53.0517,"raan_deg":262.6126,"arg_perigee_deg":63.3204,"mean_anomaly_deg":296.8036,"bstar":0.0011903,"rev_number":34819,"period_min":94.824536959966,"perigee_km":508.4315252467,"apogee_km":511.74476154068,"semimajor_km":6888.2251433937,"source":"CELESTRAK","updated_at":"2026-09-20T09:00:38.450353Z"}}